sat.trackr.live / text

‹ back to catalog

STARLINK-30492

NORAD 57921 · 2023-147J

PAYLOAD ACTIVE UNKNOWN

§ Identity

Operator
Country
US
Launch date
2023-09-24
Launch site
AFETR
Launch vehicle
Mass (kg)
RCS (m²)

Purposes: comms

External: N2YO · Heavens-Above · Gunter

§ Orbital elements

Epoch: 2026-09-20T14:07:36.885504Z

Period
94.27 min
Inclination
43.0033°
Eccentricity
0.0001302
Mean motion
15.27569907 rev/d
Perigee alt
482.2 km
Apogee alt
484.0 km
Semi-major
6,861.2 km
B*
2.2742e-4
RAAN
304.6653°
Arg perigee
275.4009°
Mean anomaly
84.6694°
Rev number
16,640

§ Raw data

STARLINK-304921 57921U 23147J   26263.58862136  .00005999  00000+0  22742-3 0  99902 57921  43.0033 304.6653 0001302 275.4009  84.6694 15.27569907166404

JSON: /api/v1/satellites/57921 · /tle

For live sub-satellite position, see the globe view (requires WebGL).

§ Visibility from observer

Set your observer location to see the next 7 days of passes ≥ 10°. The values pass through the URL so the page stays shareable.

No JS? Fill the form by hand. The geolocation button needs JavaScript.